Regional Weather Roundup
Issued by NWS

Home | Current Version | Previous Version | Graphics & Text | Print | Product List | Glossary On
Versions: 1 2 3 4 5 6 7 8 9 10 11 12 13 14 15 16 17 18 19 20 21 22 23 24 25 26 27 28 29 30 31 32 33 34 35 36 37 38 39 40 41 42 43 44 45 46 47 48 49 50
000
ASUS45 KBOU 281407
RWRCO

WEATHER ROUNDUP FOR COLORADO
NATIONAL WEATHER SERVICE DENVER/BOULDER CO
800 AM MDT SAT MAY 28 2016

NOTE: "FAIR" INDICATES FEW OR NO CLOUDS BELOW 12000 FEET WITH NO
SIGNIFICANT WEATHER AND/OR OBSTRUCTIONS TO VISIBILITY.

COZ001>005-013-030-031-281500-
...NORTHWEST COLORADO...

CITY           SKY/WX    TMP DP  RH WIND       PRES   REMARKS
CRAIG          FAIR      48  40  73 E6        30.11R
HAYDEN         FAIR      45  36  70 E9        30.11R
MEEKER         PTSUNNY   43  36  76 CALM      30.13R
MOUNT WERNER   NOT AVBL
STEAMBOAT SPGS FAIR      41  36  82 CALM      30.13R
WALDEN         FAIR      37  34  87 CALM      30.16R
$$

COZ006>008-011-281500-
...WEST CENTRAL VALLEYS...

CITY           SKY/WX    TMP DP  RH WIND       PRES   REMARKS
GRAND JUNCTION FAIR      52  42  69 SE9       30.08R
MONTROSE       FAIR      50  34  54 SE6       30.13R
EAGLE          MOSUNNY   37  36  93 CALM      30.19R
RIFLE          FAIR      46  36  68 NE3       30.13R
DELTA          FAIR      52  38  59 NE5       30.12R
NUCLA          FAIR      50  32  50 SE6       30.14S
$$

COZ017>023-064>068-281500-
...SOUTHWEST COLORADO...

CITY           SKY/WX    TMP DP  RH WIND       PRES   REMARKS
DURANGO        FAIR      45  35  68 CALM      30.14R
CORTEZ         FAIR      49  33  54 CALM      30.11R
PAGOSA SPRINGS FAIR      43  32  66 CALM      30.19S
TELLURIDE      FAIR      41  31  67 SE3       30.23S
WOLF CREEK PAS FAIR      32  23  69 SW12G17   30.34R WCI  23
$$

COZ009-010-012-014-032>034-037-058>063-281500-
...CENTRAL COLORADO...

CITY           SKY/WX    TMP DP  RH WIND       PRES   REMARKS
ASPEN          FAIR      42  31  64 CALM      30.16S
BUENA VISTA    FAIR      42  31  65 CALM      30.17S
COPPER MTN     NOT AVBL
BERTHOUD PASS  CLOUDY    23  14  68 NW15G24   30.27R WCI  10
COTTONWOOD PAS FAIR      45  28  53 CALM      30.22R
GUNNISON       FAIR      36  30  80 CALM      30.23R
KREMMLING      PTSUNNY   36  32  87 CALM      30.19R
LEADVILLE      FAIR      35  30  82 N3        30.21R
MONARCH PASS   FAIR      28  28 100 W14       30.39R WCI  17
SALIDA         FAIR      42  34  72 N3        30.23S
SUNLIGHT       FAIR      36  32  87 CALM      30.29S
WILKERSON PASS FAIR      32  23  69 NW7       30.28R WCI  26
$$

COZ069>075-281500-
...SAN LUIS VALLEY/SANGRE DE CRISTO MOUNTAINS...

CITY           SKY/WX    TMP DP  RH WIND       PRES   REMARKS
ALAMOSA        FAIR      40  37  89 S5        30.19R
LA VETA PASS   FAIR      36  32  87 S7        30.23S
SAGUACHE       FAIR      45  32  61 CALM      30.19R
$$

COZ035-036-038>040-281500-
...NORTHERN COLORADO FRONT RANGE...

CITY           SKY/WX    TMP DP  RH WIND       PRES   REMARKS
DENVER INTL AP FAIR      54  42  64 SW9       30.03R
DMNS CITY PARK   N/A     54  38  53 E7G13     30.03S
AURORA         MOSUNNY   53  41  62 S3        30.05R
FRONT RANGE AP MOSUNNY   54  41  62 SW7       30.05R
ERIE MUNI ARPT FAIR      50  43  77 SW3       30.02R
BOULDER MUN AP PTSUNNY   52  41  66 SE3       30.02R
CENTENNIAL     FAIR      54  40  59 SE6       30.04S
BROOMFIELD     MOSUNNY   54  39  58 VRB5      30.04R
FORT COLLINS   FAIR      48  45  87 S5        30.02R
LONGMONT       PTSUNNY   50  44  80 CALM      30.03S HAZE
$$

COZ041-046-047-076>085-087-088-281500-
...PIKES PEAK/PALMER DIVIDE AND SOUTHERN FOOTHILLS...

CITY           SKY/WX    TMP DP  RH WIND       PRES   REMARKS
COLO. SPRINGS  FAIR      53  34  48 W5        30.09R
A. F. ACADEMY  FAIR      54  36  50 N5        30.08R
SCHRIEVER AFB  NOT AVBL
ELLICOTT       FAIR     N/A N/A N/A NW7       30.07R
FALCON         FAIR      54  34  47 MISG      30.10S
FORT CARSON    FAIR      54  39  57 N3        30.07R
LIMON          FAIR      50  42  74 W7        30.04R
MONUMENT HILL  FAIR      50  34  53 CALM      30.11R
TRINIDAD       FAIR      52  38  58 W12       30.07R
$$

COZ042>045-048>051-090-091-281500-
...NORTHEAST COLORADO...

CITY           SKY/WX    TMP DP  RH WIND       PRES   REMARKS
GREELEY ARPT   FAIR      50  45  81 CALM      30.02R
AKRON          FAIR      51  45  79 W10       29.99R
BURLINGTON     FAIR      55  46  71 NW7       29.99R
WRAY           NOT AVBL
STERLING       FAIR      50  46  87 SW6       29.96R
HOLYOKE        FAIR      59  50  72 NW8       29.96R
FORT MORGAN    FAIR      52  47  83 W8        30.00R
$$

COZ086-089-092>099-281500-
...SOUTHEAST COLORADO...

CITY           SKY/WX    TMP DP  RH WIND       PRES   REMARKS
PUEBLO         FAIR      55  42  61 W6        30.04R
LA JUNTA       FAIR      55  45  68 W5        30.02R
LAMAR          FAIR      56  48  74 W9        30.00R
SPRINGFIELD      N/A     61  44  53 NW9       30.02R
$$



USA.gov is the U.S. government's official web portal to all federal, state and local government web resources and services.